Regional Weather Roundup
Issued by NWS

Home | Current Version | Previous Version | Text Only | Print | Product List | Glossary Off
Versions: 1 2 3 4 5 6 7 8 9 10 11 12 13 14 15 16 17 18 19 20 21 22 23 24 25 26 27 28 29 30 31 32 33 34 35 36 37 38 39 40 41 42 43 44 45 46 47 48 49 50

000
ASUS43 KDMX 060707
RWRIA

WEATHER ROUNDUP FOR IOWA
NATIONAL WEATHER SERVICE DES MOINES IA
200 AM CDT MON JUL 06 2015

NOTE: "FAIR" INDICATES FEW OR NO CLOUDS BELOW 12,000 FEET WITH NO
SIGNIFICANT WEATHER AND/OR OBSTRUCTIONS TO VISIBILITY.

* - THESE STATIONS ARE NOT NWS STATIONS...THUS NOT UNDER NWS
QUALITY CONTROL.  THEY ALSO DO NOT REPORT WEATHER SUCH
AS PRECIPITATION OR FOG.

IAZ001>003-012>014-020>022-031>034-043>046-060800-
   NORTHWEST IOWA

CITY           SKY/WX    TMP DP  RH WIND       PRES   REMARKS
CARROLL *      CLOUDY    77  75  94 SW20      29.81S
CHEROKEE *     CLOUDY    75  70  83 S18G25    29.78R
DENISON *      RAIN      77  75  94 S10       29.82R
LE MARS *        N/A     79  73  83 S23G29    29.77R HX  82
ORANGE CITY *  LGT RAIN  75  72  88 S17G25    29.77R
SHELDON *      MOCLDY    77  77 100 S24G36    29.73F
SIOUX CITY     CLOUDY    81  68  64 S15G28    29.79R HX  84
SPENCER        CLOUDY    77  69  76 S16G25    29.76F
STORM LAKE *   HVY RAIN  73  70  88 S15G28    29.81R
$$

IAZ055>058-069>071-079>083-090>094-060800-
   SOUTHWEST IOWA

CITY           SKY/WX    TMP DP  RH WIND       PRES   REMARKS
ATLANTIC *     PTCLDY    79  75  89 S13G18    29.82F HX  82
AUDUBON *      CLEAR     79  73  83 S12G18    29.83F HX  82
CLARINDA *     CLEAR     81  81 100 S12G17    29.85F HX  91
COUNCIL BLFS * CLOUDY    79  75  89 S9G15     29.82F HX  82
CRESTON *      CLEAR     77  73  88 S15       29.86F
HARLAN  *      MOCLDY    79  79 100 S8G18     29.86F HX  83
LAMONI         CLOUDY    77  73  87 S12       29.88F
RED OAK *      MOCLDY    81  75  83 S15       29.81F HX  86
SHENANDOAH *   CLEAR     81  75  83 S13G20    29.82F HX  86
$$

IAZ047>049-059>061-072>074-084-060800-
   CENTRAL IOWA

CITY           SKY/WX    TMP DP  RH WIND       PRES   REMARKS
AMES           CLOUDY    72  68  87 SE6       29.85R
ANKENY *       MOCLDY    75  72  88 S9        29.85S
CHARITON *     CLEAR     75  72  88 S10       29.89R
DES MOINES     CLOUDY    77  71  82 S12       29.85S
GRINNELL*      PTCLDY    72  68  88 S9        29.91R
KNOXVILLE *    CLEAR     75  70  83 S8        29.87R
MARSHALLTOWN   MOCLDY    74  68  81 SE10      29.88R
PELLA *        MOCLDY    73  72  94 S8        29.89R
PERRY *        LGT RAIN  77  73  88 SW8       29.84S
$$

IAZ004>006-015-016-023>025-035-036-060800-
   NORTH CENTRAL IOWA

CITY           SKY/WX    TMP DP  RH WIND       PRES   REMARKS
ALGONA *       PTCLDY    75  72  88 S16G22    29.80F
CLARION *      CLEAR     75  68  78 S18       29.82F
ESTHERVILLE    CLOUDY    75  69  81 S13G23    29.76F
FORT DODGE *   CLOUDY    75  70  83 S13G22    29.82F
MASON CITY     CLOUDY    72  68  87 S13       29.85S
FOREST CITY *  PTCLDY    72  66  83 S12       29.82F
IOWA FALLS *     N/A     73  68  83 S12       29.88R
$$

IAZ007>011-017>019-026>030-037>042-050>054-066-060800-
   NORTHEAST IOWA

CITY           SKY/WX    TMP DP  RH WIND       PRES   REMARKS
CEDAR RAPIDS   CLEAR     71  69  93 S9        29.91S FOG
CHARLES CITY * MOCLDY    73  72  94 S12       29.89R
CLINTON *      CLEAR     66  63  88 S8        29.98S
DECORAH *        N/A    N/A N/A N/A MISG        N/A
DUBUQUE        CLEAR     68  65  90 S9        29.96R FOG
MONTICELLO *   CLEAR     68  68 100 SE7       29.94R FOG
OELWEIN *      CLEAR     70  70 100 S10       29.93R FOG
WATERLOO       MOCLDY    73  68  84 S10       29.89R
$$

IAZ064-065-067-068-078-060800-
   EAST CENTRAL IOWA

CITY           SKY/WX    TMP DP  RH WIND       PRES   REMARKS
DAVENPORT      CLEAR     71  65  81 S10       29.95F
IOWA CITY      CLEAR     69  67  93 SE7       29.93F FOG
MT. PLEASANT * CLEAR     73  68  83 SE9       29.93F HAZE
MUSCATINE *    CLEAR     70  68  94 CALM      29.94S FOG
QUAD CITIES    CLEAR     69  65  86 VRB3      29.95F FOG
$$

IAZ062-063-075>077-085>089-095>099-060800-
   SOUTHEAST IOWA

CITY           SKY/WX    TMP DP  RH WIND       PRES   REMARKS
BURLINGTON     PTCLDY    73  69  87 S10       29.94F FOG
FAIRFIELD *    CLEAR     73  68  83 S12       29.91F
FORT MADISON * CLEAR     72  68  88 S7        29.95F FOG
KEOKUK *       CLEAR     73  70  88 S8        29.93F
OSKALOOSA *      N/A     72  68  88 S7        29.91R
CENTERVILLE *  CLEAR     73  70  88 S10       29.92S
OTTUMWA        PTCLDY    73  69  87 S10       29.89F
WASHINGTON *   CLEAR     68  68 100 SE6       29.94S FOG
$$

ABBREVIATIONS USED IN REMARKS
   TC - TEMPERATURES IN CELSIUS
  WCI - WIND CHILL INDEX
   HX - HEAT INDEX
  VSB - VISIBILITY
$$




USA.gov is the U.S. government's official web portal to all federal, state and local government web resources and services.